Home > Weather > Fukushima > Past weeks

Flag for Japan Past Weather in Fukushima, Japan — Yesterday and Last 2 Weeks

Now
72 °F

Light rain. Overcast.


Feels Like: 67 °F
Forecast: 68 / 76 °F
Wind: 2 mph from East

Location: Wakamatsu

Current Time: Aug 27, 2016 at 3:53:41 AM

Latest Report: Aug 27, 2016 at 3:00 AM


Visibility: 13 mi

Pressure: 29.72 "Hg

Humidity: 94%

Dew Point: 70 °F

Location of FukushimaLocation

Past Weather in Fukushima — Graph

°F

Fukushima Temperature Yesterday

Maximum temperature yesterday: 91 °F (at 1:00 PM)
Minimum temperature yesterday: 73 °F (at 4:00 AM)
Average temperature yesterday: 79 °F

High & Low Weather Summary for the Past Weeks

 TemperatureHumidityPressure
High92 °F (Aug 21, 2:00 PM)100% (Aug 23, 4:00 AM)29.88 "Hg (Aug 23, 4:00 AM)
Low66 °F (Aug 12, 5:00 AM)38% (Aug 12, 12:00 PM)29.35 "Hg (Aug 17, 7:00 AM)
Average79 °F76%29.69 "Hg
* Reported Aug 12 2:00 AM — Aug 27 1:00 AM, Fukushima, Weather by CustomWeather, © 2016

Note: Actual official high and low records may vary slightly from our data, if they occured in-between our weather recording intervals... More about our weather records

Advertising

Fukushima Weather History for the Previous 24 Hours

Scroll right to see more
 ConditionsComfort  
Time TempWeatherWind HumidityBarometerVisibility
1:00 AM
Sat, Aug 27
72 °FLight rain. Overcast.3 mph94%29.71 "Hg12 mi
12:00 AM73 °FMild.5 mph92%29.71 "Hg12 mi
11:00 PM
Fri, Aug 26
74 °FLight rain. Overcast.5 mph90%29.72 "Hg12 mi
10:00 PM74 °FLight rain. Overcast.5 mph92%29.71 "Hg12 mi
9:00 PM75 °FLight rain. Overcast.6 mph90%29.70 "Hg12 mi
8:00 PM77 °FLight rain. Overcast.1 mph93%29.68 "Hg12 mi
7:00 PM78 °FWarm.2 mph88%29.67 "Hg12 mi
6:00 PM76 °FRain. Overcast.1 mph94%29.66 "Hg2 mi
5:00 PM83 °FWarm.6 mph73%29.62 "Hg12 mi
4:00 PM82 °FWarm.3 mph75%29.62 "Hg12 mi
3:00 PM80 °FLight rain. Cloudy.6 mph83%29.62 "Hg12 mi
2:00 PM87 °FWarm.10 mph65%29.59 "Hg12 mi
1:00 PM91 °FHot.7 mph53%29.59 "Hg12 mi
12:00 PM90 °FHot.5 mph54%29.62 "Hg12 mi
11:00 AM88 °FWarm.5 mph58%29.64 "Hg12 mi
10:00 AM85 °FWarm.6 mph66%29.66 "Hg12 mi
9:00 AM83 °FWarm.2 mph73%29.67 "Hg12 mi
8:00 AM80 °FWarm.7 mph77%29.68 "Hg12 mi
7:00 AM77 °FWarm.2 mph82%29.69 "Hg12 mi
6:00 AM74 °FMild.2 mph90%29.70 "Hg12 mi
5:00 AM74 °FMild.3 mph89%29.68 "Hg12 mi
4:00 AM73 °FMild.2 mph92%29.69 "Hg12 mi
3:00 AM73 °FMild.3 mph92%29.69 "Hg12 mi
Weather by CustomWeather, © 2016

See weather overviewHow to use our weather pages